{"data":{"norad_id":62277,"intl_designator":"2024-237L","name":"STARLINK-11484 [DTC]","alt_names":[],"object_type":"PAYLOAD","status":"ACTIVE","operator":null,"country":"US","launch_date":"2024-12-08","launch_site_code":"AFETR","launch_vehicle":null,"mission":null,"orbit_class":"UNKNOWN","rcs_meters":null,"size_class":null,"mass_kg":null,"dimensions":null,"purposes":["comms"],"wikipedia_slug":null,"has_3d_model":false,"image_url":null,"decayed_at":null,"tle_current":{"epoch":"2026-05-25T04:43:56.282880Z","epoch_age_seconds":58329,"freshness":"FRESH","line1":"1 62277U 24237L   26145.19717920  .00214525  00000+0  16292-2 0  9996","line2":"2 62277  42.9988 315.5587 0000485  65.3699 294.7219 15.70888732 85089","mean_motion":15.70888732,"eccentricity":4.85e-5,"inclination_deg":42.9988,"raan_deg":315.5587,"arg_perigee_deg":65.3699,"mean_anomaly_deg":294.7219,"bstar":0.0016292,"rev_number":8508,"period_min":91.667854677819,"perigee_km":356.02915709314,"apogee_km":356.6824028928,"semimajor_km":6734.492779993,"source":"CELESTRAK","updated_at":"2026-05-25T13:38:19.643911Z"}}}